Tracking 30986 objects as of 9-Jul-2025
HD Live streaming from Space Station
objects crossing your sky now

FENGYUN 1C DEB

Track FENGYUN 1C DEB now!
10-day predictions


NORAD ID: 35147
Int'l Code: 1999-025DMB
Perigee: 651.7 km
Apogee: 692.2 km
Inclination: 99.5 °
Period: 98.0 minutes
Semi major axis: 7042 km
RCS: 0.0009 m2 (small)
Launch date: May 10, 1999
Source: People's Republic of China (PRC)
Launch site: Taiyaun Space Center, China (TSC)

Note: This is SATELLITE DEBRIS
Your satellite tracking list
Your tracking list is empty




NASA's NSSDC Master Catalog

Two Line Element Set (TLE):
1 35147U 99025DMB 25189.57146673  .00008221  00000-0  14090-2 0  9998
2 35147  99.4973 237.1376 0028763 322.1070  37.8106 14.68818783719942
Source of the keplerian elements: AFSPC